Flag for U.S.A. Weather past 2 weeks in Harrisburg, Pennsylvania, U.S.A.

Now
75 °F

Sunny.


Feels Like: 77 °F
Forecast: 55 / 79 °F
Wind: 3 mph from Northeast

Location: Capital City Airport

Current Time: Jul 25, 2014 at 1:26:08 PM

Latest Report: Jul 25, 2014 at 12:56 PM


Visibility: 10 mi

Pressure: 30.05 "Hg

Humidity: 36%

Dew point: 46 °F

Location of HarrisburgLocation

Historic Weather in Harrisburg — Graph

°F

Harrisburg temperature yesterday

Maximum temperature yesterday: 78 °F (at 2:56 PM)
Minimum temperature yesterday: 61 °F (at 11:56 PM)
Average temperature yesterday: 73 °F

Past Weeks' High & Low Weather Summary

 TemperatureHumidityPressure
High92 °F (Jul 23, 3:56 PM)97% (Jul 14, 8:56 PM)30.26 "Hg (Jul 14, 8:56 PM)
Low54 °F (Jul 18, 5:56 AM)35% (Jul 17, 5:56 PM)29.72 "Hg (Jul 15, 4:56 PM)
Average73 °F71%30.04 "Hg
* Reported Jul 10 11:56 AM — Jul 25 11:56 AM, Harrisburg, Weather by CustomWeather, © 2014

Note: Actual official high and low records may vary slightly from our data, if they occured in-between our weather recording intervals... More about our weather records

Advertising

Harrisburg weather history for previous 24 hours

 ConditionsComfort  
Time TempWeatherWind HumidityBarometerVisibility
11:56 AM
Jul 25
72 °FSunny.3 mph46%30.06 "Hg10 mi
10:56 AM71 °FSunny.6 mph51%30.07 "Hg10 mi
9:56 AM68 °FSunny.7 mph53%30.08 "Hg10 mi
8:56 AM66 °FSunny.8 mph56%30.09 "Hg10 mi
7:56 AM63 °FSunny.5 mph63%30.08 "Hg10 mi
6:56 AM57 °FClear.5 mph81%30.06 "Hg10 mi
5:56 AM55 °FClear.6 mph83%30.05 "Hg10 mi
4:56 AM55 °FClear.6 mph83%30.01 "Hg10 mi
3:56 AM58 °FClear.No wind75%30.01 "Hg10 mi
2:56 AM64 °FClear.5 mph56%30.01 "Hg10 mi
1:56 AM67 °FClear.7 mph53%30.01 "Hg10 mi
12:56 AM67 °FClear.3 mph59%30.00 "Hg10 mi
11:56 PM
Jul 24
61 °FClear.No wind81%29.98 "Hg10 mi
10:56 PM63 °FClear.No wind73%29.96 "Hg10 mi
9:56 PM72 °FClear.5 mph49%29.94 "Hg10 mi
8:56 PM73 °FSunny.6 mph48%29.93 "Hg10 mi
7:56 PM75 °FSunny.8 mph43%29.93 "Hg10 mi
6:56 PM75 °FSunny.8 mph42%29.92 "Hg10 mi
5:56 PM77 °FSunny.9 mph40%29.90 "Hg10 mi
4:56 PM78 °FBroken clouds.8 mph40%29.90 "Hg10 mi
3:56 PM78 °FPassing clouds.10 mph39%29.91 "Hg10 mi
2:56 PM78 °FBroken clouds.8 mph40%29.90 "Hg10 mi
1:56 PM77 °FScattered clouds.10 mph44%29.91 "Hg10 mi
Weather by CustomWeather, © 2014

See weather overviewHow to use our weather pages